TimeCDT,TemperatureF,Dew PointF,Humidity,Sea Level PressureIn,VisibilityMPH,Wind Direction,Wind SpeedMPH,Gust SpeedMPH,PrecipitationIn,Events,Conditions,WindDirDegrees,DateUTC
12:53 AM,60.1,57.9,93,29.96,10.0,NNW,8.1,-,N/A,,Overcast,330,2013-10-06 05:53:00
1:53 AM,57.9,55.0,90,29.96,10.0,NW,12.7,-,N/A,,Mostly Cloudy,310,2013-10-06 06:53:00
2:53 AM,55.9,53.1,90,29.99,10.0,NW,6.9,-,N/A,,Scattered Clouds,320,2013-10-06 07:53:00
3:53 AM,55.0,52.0,89,30.00,10.0,NNW,4.6,-,N/A,,Mostly Cloudy,330,2013-10-06 08:53:00
4:53 AM,54.0,52.0,93,30.01,10.0,Calm,Calm,-,N/A,,Mostly Cloudy,0,2013-10-06 09:53:00
5:53 AM,53.1,51.1,93,30.00,10.0,NW,5.8,-,N/A,,Partly Cloudy,310,2013-10-06 10:53:00
6:53 AM,53.1,50.0,89,30.01,10.0,NNW,3.5,-,N/A,,Scattered Clouds,330,2013-10-06 11:53:00
7:53 AM,54.0,51.1,90,30.03,10.0,NW,3.5,-,N/A,,Mostly Cloudy,320,2013-10-06 12:53:00
8:53 AM,59.0,51.1,75,30.03,10.0,NW,6.9,-,N/A,,Clear,320,2013-10-06 13:53:00
9:53 AM,64.0,48.0,56,30.03,10.0,NNW,8.1,-,N/A,,Clear,340,2013-10-06 14:53:00
10:53 AM,66.0,48.0,52,30.05,10.0,NW,8.1,-,N/A,,Clear,310,2013-10-06 15:53:00
11:53 AM,66.9,46.0,47,30.02,10.0,WNW,8.1,-,N/A,,Clear,300,2013-10-06 16:53:00
12:53 PM,70.0,45.0,41,30.00,10.0,NW,10.4,16.1,N/A,,Clear,310,2013-10-06 17:53:00
1:53 PM,72.0,37.0,28,29.97,10.0,West,11.5,21.9,N/A,,Clear,270,2013-10-06 18:53:00
2:53 PM,72.0,41.0,33,29.95,10.0,NW,11.5,17.3,N/A,,Clear,310,2013-10-06 19:53:00
3:53 PM,73.0,44.1,35,29.94,10.0,West,8.1,-,N/A,,Clear,270,2013-10-06 20:53:00
4:53 PM,73.0,44.1,35,29.94,10.0,WNW,9.2,-,N/A,,Clear,300,2013-10-06 21:53:00
5:53 PM,70.0,45.0,41,29.95,10.0,WNW,8.1,16.1,N/A,,Clear,290,2013-10-06 22:53:00
6:53 PM,64.0,48.9,58,29.97,10.0,WNW,5.8,-,N/A,,Clear,290,2013-10-06 23:53:00
7:53 PM,59.0,53.1,81,29.99,10.0,Calm,Calm,-,N/A,,Clear,0,2013-10-07 00:53:00
8:53 PM,60.1,50.0,69,30.01,10.0,West,4.6,-,N/A,,Clear,280,2013-10-07 01:53:00
9:53 PM,57.0,50.0,77,30.03,10.0,NW,3.5,-,N/A,,Clear,310,2013-10-07 02:53:00
10:53 PM,55.0,51.1,86,30.04,10.0,Calm,Calm,-,N/A,,Clear,0,2013-10-07 03:53:00
11:53 PM,53.1,51.1,93,30.04,10.0,Calm,Calm,-,N/A,,Clear,0,2013-10-07 04:53:00